Flag for U.S.A. Weather past 2 weeks in Ocala, Florida, U.S.A.

Now
73 °F

Clear.


Feels Like: 68 °F
Forecast: 72 / 84 °F
Wind: 5 mph from Southwest

Location: Ocala Municipal

Current Time: Jul 31, 2015 at 4:22:06 AM

Latest Report: Jul 31, 2015 at 3:55 AM


Visibility: 10 mi

Pressure: 29.95 "Hg

Humidity: 100%

Dew point: 73 °F

Location of OcalaLocation

Historic Weather in Ocala — Graph

°F

Ocala temperature yesterday

Maximum temperature yesterday: 90 °F (at 2:50 PM)
Minimum temperature yesterday: 72 °F (at 4:55 AM)
Average temperature yesterday: 77 °F

Past Weeks' High & Low Weather Summary

 TemperatureHumidityPressure
High93 °F (Jul 29, 12:50 PM)100% (Jul 21, 4:35 AM)30.05 "Hg (Jul 21, 4:35 AM)
Low72 °F (Jul 30, 4:55 AM)53% (Jul 29, 2:50 PM)29.85 "Hg (Jul 26, 3:55 AM)
Average78 °F87%29.96 "Hg
* Reported Jul 16 3:15 AM — Jul 31 3:15 AM, Ocala, Weather by CustomWeather, © 2015

Note: Actual official high and low records may vary slightly from our data, if they occured in-between our weather recording intervals... More about our weather records

Advertising

Ocala weather history for previous 24 hours

 ConditionsComfort  
Time TempWeatherWind HumidityBarometerVisibility
3:15 AM
Fri, Jul 31
75 °FClear.3 mph94%29.96 "Hg10 mi
2:55 AM75 °FClear.5 mph94%29.96 "Hg10 mi
2:35 AM75 °FClear.5 mph94%29.96 "Hg10 mi
2:15 AM75 °FClear.6 mph94%29.97 "Hg10 mi
1:55 AM75 °FClear.6 mph94%29.97 "Hg8 mi
1:35 AM75 °FClear.3 mph94%29.97 "Hg8 mi
1:15 AM75 °FClear.3 mph94%29.97 "Hg10 mi
12:55 AM75 °FClear.3 mph94%29.98 "Hg10 mi
11:35 PM
Thu, Jul 30
75 °FClear.5 mph94%30.00 "Hg10 mi
11:15 PM75 °FClear.No wind94%29.99 "Hg10 mi
10:55 PM75 °FClear.5 mph94%29.99 "Hg10 mi
10:35 PM75 °FClear.No wind89%29.99 "Hg10 mi
10:15 PM75 °FClear.3 mph89%29.99 "Hg10 mi
9:55 PM75 °FClear.3 mph89%29.99 "Hg10 mi
9:35 PM75 °FClear.6 mph89%29.98 "Hg10 mi
9:15 PM75 °FSunny.No wind89%29.98 "Hg10 mi
8:55 PM75 °FSunny.6 mph89%29.96 "Hg10 mi
8:35 PM79 °FSunny.5 mph79%29.96 "Hg10 mi
8:15 PM81 °FPassing clouds.3 mph79%29.94 "Hg10 mi
7:55 PM81 °FScattered clouds.6 mph74%29.95 "Hg10 mi
6:50 PM88 °FScattered clouds.8 mph59%29.94 "Hg10 mi
5:50 PM90 °FScattered clouds.8 mph55%29.93 "Hg10 mi
4:50 PM84 °FScattered clouds.10 mph84%29.93 "Hg10 mi
3:50 PM84 °FBroken clouds.8 mph74%29.94 "Hg10 mi
2:50 PM90 °FScattered clouds.6 mph59%29.96 "Hg10 mi
1:50 PM88 °FScattered clouds.6 mph62%29.98 "Hg10 mi
12:50 PM84 °FScattered clouds.9 mph70%30.00 "Hg10 mi
11:50 AM82 °FBroken clouds.6 mph79%30.01 "Hg10 mi
10:50 AM82 °FPartly sunny.7 mph89%30.01 "Hg10 mi
9:50 AM79 °FPartly sunny.7 mph94%30.01 "Hg10 mi
8:50 AM75 °FLow clouds.No wind94%29.99 "Hg8 mi
7:50 AM73 °FSunny.No wind94%29.98 "Hg7 mi
6:50 AM72 °FClear.No wind100%29.97 "Hg7 mi
6:35 AM72 °FPassing clouds.No wind100%29.96 "Hg8 mi
6:15 AM72 °FPassing clouds.No wind100%29.96 "Hg8 mi
5:55 AM73 °FPassing clouds.No wind94%29.96 "Hg10 mi
5:35 AM73 °FPartly cloudy.5 mph94%29.96 "Hg10 mi
5:15 AM72 °FPassing clouds.No wind100%29.96 "Hg8 mi
4:55 AM72 °FClear.No wind100%29.96 "Hg9 mi
4:35 AM73 °FPassing clouds.3 mph94%29.96 "Hg8 mi
4:15 AM73 °FOvercast.5 mph94%29.96 "Hg5 mi
Weather by CustomWeather, © 2015

See weather overviewHow to use our weather pages